Location: Seven Kings
(51.5667°N, 0.1000°E)
Time: 03:21:17
(UTC+00:00)

Cosmos 1812 Rocket - Pass Details

Date: 29 October 2020
Orbit: 605 x 633 km, 82.5° (Epoch: 27 November)

Event Time Altitude Azimuth Distance (km) Brightness Sun altitude
Rises 18:59:11 0° 192° (SSW) 2,889 7.1 -22.5°
Reaches altitude 10° 19:01:24 10° 194° (SSW) 1,983 6.2 -22.9°
Maximum altitude 19:05:48 78° 280° (W) 636 3.6 -23.5°
Drops below altitude 10° 19:10:12 10° 8° (N) 1,982 6.1 -24.2°
Sets 19:12:25 0° 10° (N) 2,888 7.0 -24.6°
